Iron Station, NC

3:18 PM EST on February 19, 2017 (GMT -0500)
Lincolnton-Lincoln County Regional

Weather History for KIPJ - November, 2013

Change the Weather History Date:

Saturday, November 23, 2013

  Actual Average (KCLT) Record (KCLT)
Temperature  
Mean Temperature 49 °F -  
Max Temperature 59 °F 58 °F 78 °F (1900)
Min Temperature 39 °F 37 °F 18 °F (1880)
Degree Days  
Heating Degree Days 16    
Moisture  
Dew Point 39 °F    
Average Humidity 65    
Maximum Humidity 100    
Minimum Humidity 25    
Precipitation  
Precipitation 0.00 in - - ()
Sea Level Pressure  
Sea Level Pressure 30.13 in    
Wind  
Wind Speed 2 mph (NW)    
Max Wind Speed 12 mph    
Max Gust Speed 17 mph    
Visibility 8 miles    
Events Fog    
Averages and records for this station are not official NWS values.
T = Trace of Precipitation, MM = Missing Value Source: NWS Daily Summary

Daily Weather History Graph

Daily Weather History Graph

Search for Another Location

Airport or City:

Trip Planner

Search our weather history database for the weather conditions in past years. The results will help you decide how hot, cold, wet, or windy it might be!

Date:

Astronomy

Nov. 23, 2013 Rise Set
Actual Time 7:08 AM EST 5:13 PM EST
Civil Twilight 6:40 AM EST 5:41 PM EST
Nautical Twilight 6:09 AM EST 6:12 PM EST
Astronomical Twilight 5:38 AM EST 6:43 PM EST
Moon 10:36 PM EST (11/23) 11:28 AM EST (11/23)
Length of Visible Light 11h 00m
Length of Day
10h 05m
Waning Gibbous, 70% of the Moon is Illuminated
Nov 23
Waning Gibbous
Nov 25
Last Quarter
Dec 2
New
Dec 9
First Quarter
Dec 17
Full

Hourly Weather History & Observations

Time (EST) Temp. Windchill Dew Point Humidity Pressure Visibility Wind Dir Wind Speed Gust Speed Precip Events Conditions
12:17 AM 59.0 °F - 55.4 °F 88% 30.12 in 7.0 mi Calm Calm - N/A   Overcast
12:37 AM 59.0 °F - 55.4 °F 88% 30.11 in 7.0 mi WSW 5.8 mph - N/A   Overcast
12:59 AM 57.2 °F - 55.4 °F 94% 30.11 in 7.0 mi Calm Calm - N/A   Overcast
1:17 AM 57.2 °F - 55.4 °F 94% 30.11 in 10.0 mi Calm Calm - N/A   Overcast
1:37 AM 57.2 °F - 55.4 °F 94% 30.11 in 10.0 mi West 3.5 mph - N/A   Overcast
1:57 AM 57.2 °F - 55.4 °F 94% 30.11 in 10.0 mi WSW 3.5 mph - N/A   Overcast
2:17 AM 57.2 °F - 55.4 °F 94% 30.11 in 7.0 mi Calm Calm - N/A   Overcast
2:37 AM 57.2 °F - 55.4 °F 94% 30.11 in 7.0 mi Calm Calm - N/A   Overcast
2:57 AM 57.2 °F - 55.4 °F 94% 30.11 in 7.0 mi Calm Calm - N/A   Overcast
3:17 AM 57.2 °F - 55.4 °F 94% 30.11 in 7.0 mi Calm Calm - N/A   Overcast
3:39 AM 57.2 °F - 55.4 °F 94% 30.10 in 7.0 mi Calm Calm - N/A   Overcast
3:57 AM 57.2 °F - 55.4 °F 94% 30.10 in 5.0 mi Calm Calm - N/A   Overcast
4:17 AM 55.4 °F - 53.6 °F 94% 30.10 in 4.0 mi Calm Calm - N/A   Overcast
4:37 AM 53.6 °F - 53.6 °F 100% 30.10 in 0.5 mi Calm Calm - N/A Fog Fog
4:57 AM 53.6 °F - 51.8 °F 94% 30.09 in 0.2 mi Calm Calm - N/A Fog Fog
5:17 AM 51.8 °F - 51.8 °F 100% 30.09 in 0.2 mi Calm Calm - N/A Fog Fog
5:37 AM 51.8 °F - 51.8 °F 100% 30.09 in 0.2 mi Calm Calm - N/A Fog Fog
5:57 AM 51.8 °F - 50.0 °F 94% 30.10 in 0.2 mi Calm Calm - N/A Fog Fog
6:20 AM 53.6 °F - 51.8 °F 94% 30.11 in 0.5 mi Calm Calm - N/A Fog Fog
6:37 AM 53.6 °F - 53.6 °F 100% 30.10 in 0.2 mi Calm Calm - N/A Fog Fog
6:57 AM 53.6 °F - 53.6 °F 100% 30.10 in 0.2 mi Calm Calm - N/A Fog Fog
7:17 AM 53.6 °F - 51.8 °F 94% 30.10 in 0.2 mi Calm Calm - N/A Fog Fog
7:37 AM 53.6 °F - 51.8 °F 94% 30.11 in 0.2 mi Calm Calm - N/A Fog Fog
7:57 AM 53.6 °F - 53.6 °F 100% 30.12 in 0.2 mi Calm Calm - N/A Fog Fog
8:17 AM 53.6 °F - 53.6 °F 100% 30.13 in 0.5 mi Calm Calm - N/A Fog Fog
8:37 AM 53.6 °F - 53.6 °F 100% 30.14 in 3.0 mi Calm Calm - N/A   Overcast
8:57 AM 55.4 °F - 53.6 °F 94% 30.14 in 7.0 mi Calm Calm - N/A   Overcast
9:18 AM 55.4 °F - 53.6 °F 94% 30.15 in 7.0 mi Calm Calm - N/A   Overcast
9:39 AM 55.4 °F - 55.4 °F 100% 30.15 in 10.0 mi Calm Calm - N/A   Overcast
9:57 AM 55.4 °F - 55.4 °F 100% 30.16 in 10.0 mi NNW 3.5 mph - N/A   Overcast
10:17 AM 55.4 °F - 53.6 °F 94% 30.16 in 10.0 mi Calm Calm - N/A   Overcast
10:37 AM 57.2 °F - 51.8 °F 82% 30.16 in 10.0 mi Calm Calm - N/A   Overcast
10:57 AM 57.2 °F - 50.0 °F 77% 30.15 in 10.0 mi Calm Calm - N/A   Overcast
11:17 AM 57.2 °F - 48.2 °F 72% 30.13 in 10.0 mi NNW 3.5 mph - N/A   Overcast
11:37 AM 57.2 °F - 48.2 °F 72% 30.13 in 10.0 mi NNW 3.5 mph - N/A   Mostly Cloudy
11:57 AM 57.2 °F - 46.4 °F 67% 30.13 in 10.0 mi NNW 4.6 mph - N/A   Overcast
12:17 PM 57.2 °F - 42.8 °F 59% 30.13 in 10.0 mi NNW 9.2 mph - N/A   Overcast
12:37 PM 59.0 °F - 42.8 °F 55% 30.11 in 10.0 mi WNW 5.8 mph - N/A   Overcast
12:59 PM 59.0 °F - 41.0 °F 51% 30.10 in 10.0 mi NW 5.8 mph - N/A   Overcast
1:17 PM 59.0 °F - 42.8 °F 55% 30.09 in 10.0 mi NW 6.9 mph - N/A   Overcast
1:37 PM 59.0 °F - 37.4 °F 45% 30.08 in 10.0 mi WNW 8.1 mph - N/A   Overcast
1:59 PM 59.0 °F - 35.6 °F 42% 30.08 in 10.0 mi WNW 5.8 mph 16.1 mph N/A   Overcast
2:17 PM 59.0 °F - 35.6 °F 42% 30.08 in 10.0 mi NNW 6.9 mph - N/A   Overcast
2:37 PM 59.0 °F - 32.0 °F 36% 30.08 in 10.0 mi NW 5.8 mph - N/A   Scattered Clouds
2:57 PM 59.0 °F - 26.6 °F 29% 30.08 in 10.0 mi WNW 4.6 mph - N/A   Scattered Clouds
3:17 PM 59.0 °F - 28.4 °F 31% 30.08 in 10.0 mi NNW 11.5 mph 16.1 mph N/A   Scattered Clouds
3:37 PM 57.2 °F - 28.4 °F 33% 30.09 in 10.0 mi NNW 6.9 mph - N/A   Mostly Cloudy
3:57 PM 57.2 °F - 28.4 °F 33% 30.10 in 10.0 mi NW 5.8 mph - N/A   Mostly Cloudy
4:17 PM 55.4 °F - 24.8 °F 31% 30.10 in 10.0 mi WNW 6.9 mph - N/A   Clear
4:37 PM 55.4 °F - 24.8 °F 31% 30.10 in 10.0 mi WNW 3.5 mph - N/A   Scattered Clouds
4:57 PM 55.4 °F - 23.0 °F 29% 30.11 in 10.0 mi WNW 6.9 mph - N/A   Scattered Clouds
5:17 PM 53.6 °F - 23.0 °F 30% 30.12 in 10.0 mi NW 4.6 mph - N/A   Clear
5:37 PM 53.6 °F - 23.0 °F 30% 30.12 in 10.0 mi NW 4.6 mph - N/A   Clear
5:57 PM 51.8 °F - 24.8 °F 35% 30.13 in 10.0 mi NW 4.6 mph - N/A   Clear
6:17 PM 51.8 °F - 24.8 °F 35% 30.13 in 10.0 mi Calm Calm - N/A   Clear
6:37 PM 50.0 °F - 24.8 °F 37% 30.14 in 10.0 mi Calm Calm - N/A   Clear
7:00 PM 50.0 °F - 24.8 °F 37% 30.14 in 10.0 mi NNW 4.6 mph - N/A   Clear
7:17 PM 48.2 °F - 24.8 °F 40% 30.15 in 10.0 mi NNW 5.8 mph - N/A   Clear
7:37 PM 48.2 °F - 24.8 °F 40% 30.15 in 10.0 mi NNW 5.8 mph - N/A   Clear
7:57 PM 48.2 °F - 24.8 °F 40% 30.15 in 10.0 mi NW 4.6 mph - N/A   Clear
8:17 PM 46.4 °F - 24.8 °F 43% 30.15 in 10.0 mi Calm Calm - N/A   Clear
8:37 PM 46.4 °F 45.2 °F 21.2 °F 37% 30.16 in 10.0 mi WNW 3.5 mph - N/A   Clear
8:57 PM 46.4 °F 42.4 °F 17.6 °F 32% 30.16 in 10.0 mi NW 8.1 mph - N/A   Clear
9:17 PM 46.4 °F 43.5 °F 12.2 °F 25% 30.17 in 10.0 mi NW 5.8 mph - N/A   Clear
9:37 PM 44.6 °F 43.1 °F 12.2 °F 27% 30.17 in 10.0 mi NW 3.5 mph - N/A   Clear
9:57 PM 44.6 °F 43.1 °F 12.2 °F 27% 30.18 in 10.0 mi WNW 3.5 mph - N/A   Clear
10:17 PM 44.6 °F - 15.8 °F 31% 30.18 in 10.0 mi Calm Calm - N/A   Clear
10:37 PM 39.2 °F - 17.6 °F 42% 30.19 in 10.0 mi Calm Calm - N/A   Clear
11:00 PM 39.2 °F - 19.4 °F 45% 30.19 in 10.0 mi Calm Calm - N/A   Clear
11:19 PM 41.0 °F 35.8 °F 21.2 °F 45% 30.20 in 10.0 mi North 8.1 mph - N/A   Clear
11:37 PM 42.8 °F 38.0 °F 19.4 °F 39% 30.21 in 10.0 mi NNW 8.1 mph - N/A   Clear
11:57 PM 41.0 °F 35.8 °F 17.6 °F 39% 30.22 in 10.0 mi NNW 8.1 mph 17.3 mph N/A   Clear